COSMOS 1823 DEB

Satellite information

Favourite Embed

Satellite Type and Status

DEBRISIN ORBIT

Key statistics

Satellite COSMOS 1823 DEB at a glance.

Uptime

14016

Days in orbit

Revolutions

≈ 12.5

Per day

Orbit

LEO

Low Earth Orbit

Inclination

73.4

Latest

Satellite identification and parameters

Extended collection of information and parameters for COSMOS 1823 DEB.

Object identification

Identified? True

Debris? True

Object name: COSMOS 1823 DEB

International designator: 1987-020AE

Object number (NORAD): 18753

Object ID (CCSDS): 18753

Country: COMMONWEALTH OF INDEPENDENT STATES (CIS)

Current information (Y/N): Y

RCS size: MEDIUM

Orbital parameters

Period: 115.593 minutes

Inclination: 73.4446 deg

SMA: 7860.464 km

Apoapsis: 1501.799 km

Periapsis: 1462.858 km

RAAN: 230.7161 deg

Eccentricy: 0.002477

Argument of periapsis: 165.7825 deg

Mean anomaly: 348.117 deg

Mean motion: 12.45748902 rev/day

Mean motion (dot): 0.00000106 rev/day2

B* drag term: 0.0008606 1/REarth

Two-line elements (TLE)

Creation date: July 5, 2025, 5:45 p.m.

Reference frame: TEME

Reference center: EARTH

Epoch: July 5, 2025, 2:07 p.m. UTC

TLE line 0: 0 COSMOS 1823 DEB

TLE line 1: 1 18753U 87020AE 25186.58830604 .00000106 00000-0 86060-3 0 9997

TLE line 2: 2 18753 73.4446 230.7161 0024770 165.7825 348.1170 12.45748902705781

Live tracking on map

Real-time ground track for satellite COSMOS 1823 DEB.

In-orbit conjunctions

A list of the most updated potential collisions computed for object COSMOS 1823 DEB.

Target Orbit TCA Probability of collision Miss distance Type
DELTA 1 R/B(1) LEO 2024-12-21 10:01:48 0.0005836549 839.0 (m) ROCKET BODY

Associated space launch

A satellite for the GEO-IK geodetic system

COSMOS 1823 DEB was lifted into orbit during the mission ‘Tsiklon-3 | Geo-IK 9’, on board a Tsiklon-3 space rocket.

The launch took place on Feb. 20, 1987, 4:43 a.m. from 32/2.

For more information about the launch, click the button.

Launch to space Tsiklon-3 | Geo-IK 9
Tsiklon-3 | Geo-IK 9

Agency: N/A

Status: Launch Successful

Launch date: Feb. 20, 1987, 4:43 a.m. UTC

Rocket: Tsiklon-3

Launch pad: 32/2

Location: Plesetsk Cosmodrome, Russian Federation

...

Latest news about this satellite

There are no fresh news available about this satellite. Check back as we update our databases every day.


Newsletter sign-up

Weekly statistics, charts and insights to help you stay on top of the space industry.